Regional Weather Roundup
Issued by NWS

Home | Current Version | Previous Version | Graphics & Text | Print | Product List | Glossary On
Versions: 1 2 3 4 5 6 7 8 9 10 11 12 13 14 15 16 17 18 19 20 21 22 23 24 25 26 27 28 29 30 31 32 33 34 35 36 37 38 39 40 41 42 43 44 45 46 47 48 49 50
000
ASUS44 KMEG 261310
RWRTN
TENNESSEE HOURLY STATE WEATHER ROUNDUP
NATIONAL WEATHER SERVICE MEMPHIS TN
700 AM CST SUN FEB 26 2017

TNZ002-004-019-021-049-052-054-088>092-261400-
WEST TENNESSEE

CITY           SKY/WX    TMP DP  RH WIND       PRES   REMARKS
MEMPHIS INTL   PTCLDY    35  22  58 SE8       30.17R WCI  29
NWS MEMPHIS      N/A     31 N/A N/A MISG        N/A
JACKSON        CLEAR     24  22  91 CALM      30.20R
UNION CITY     CLEAR     28  16  59 CALM      30.16F
PARIS          CLEAR     27  19  74 SE6       30.19F WCI  20
HUNTINGDON     CLEAR     27  23  86 E6        30.17F WCI  20
$$

TNZ008-025-027-028-033-062-065-066-261400-
NORTH MIDDLE TENNESSEE

CITY           SKY/WX    TMP DP  RH WIND       PRES   REMARKS
NASHVILLE      CLEAR     29  22  75 CALM      30.24R
PORTLAND       CLEAR     23  21  93 CALM      30.24R
CLARKSVILLE    CLEAR     22  18  85 SE5       30.22S WCI  16
SMYRNA         CLEAR     23  22  96 CALM      30.25R
COOKEVILLE     CLEAR     25  25 100 CALM      30.22R
GALLATIN       CLEAR     25  21  86 CALM      30.28R
CROSSVILLE     CLEAR     23  20  88 CALM      30.19R
$$

TNZ061-075-076-078-094-096-097-261400-
SOUTH MIDDLE TENNESSEE

CITY           SKY/WX    TMP DP  RH WIND       PRES   REMARKS
FAYETTEVILLE   CLEAR     28  25  86 SE3       30.22R
TULLAHOMA      CLEAR     25  19  80 CALM      30.21S
WINCHESTER     CLEAR     27  23  86 CALM      30.22R
MCMINNVILLE    CLEAR     25  25 100 CALM      30.21R
COLUMBIA       CLEAR    N/A N/A N/A CALM      30.20S
SHELBYVILLE    CLEAR     27  25  93 CALM      30.23R
$$

TNZ017-018-042-046-047-261400-
NORTHEAST TENNESSEE

CITY           SKY/WX    TMP DP  RH WIND       PRES   REMARKS
TRI CITIES     SUNNY     27  20  75 SW6       30.20R WCI  20
ELIZABETHTON   SUNNY     30  21  69 CALM      30.19R
$$

TNZ012-013-036-069-073-074-261400-
CENTRAL EAST TENNESSEE

CITY           SKY/WX    TMP DP  RH WIND       PRES   REMARKS
KNOXVILLE      PTCLDY    30  24  78 CALM      30.24R
OAK RIDGE      PTCLDY    29  24  82 CALM      30.25R
GATLINBURG     CLEAR     25  21  86 CALM      30.23R
MORRISTOWN     CLEAR     28  23  80 CALM      30.21R
JACKSBORO      CLEAR     27  23  86 CALM      30.26R
$$

TNZ083-085-099-261400-
SOUTHEAST TENNESSEE

CITY           SKY/WX    TMP DP  RH WIND       PRES   REMARKS
CHATTANOOGA    CLEAR     33  24  69 CALM      30.24R
$$

SKY/WX REPORTED AS FAIR MEANS FEW OR NO CLOUDS BELOW
12 THOUSAND FEET.





USA.gov is the U.S. government's official web portal to all federal, state and local government web resources and services.